Regional Weather Roundup
Issued by NWS

Home | Current Version | Previous Version | Graphics & Text | Print | Product List | Glossary On
Versions: 1 2 3 4 5 6 7 8 9 10 11 12 13 14 15 16 17 18 19 20 21 22 23 24 25 26 27 28 29 30 31 32 33 34 35 36 37 38 39 40 41 42 43 44 45 46 47 48 49 50
990
ASUS43 KIND 041509
RWRIN

WEATHER ROUNDUP FOR INDIANA
NATIONAL WEATHER SERVICE INDIANAPOLIS IN
1100 AM EDT WED MAY 04 2016

NOTE: "FAIR" INDICATES FEW OR NO CLOUDS BELOW 12,000 FEET WITH NO
SIGNIFICANT WEATHER AND/OR OBSTRUCTIONS TO VISIBILITY.

* - STATION DOES NOT REPORT WEATHER SUCH AS PRECIPITATION OR FOG.

+ - STATION NOT QUALITY CONTROLLED BY THE NATIONAL WEATHER SERVICE.
    USE DATA WITH CAUTION...ESPECIALLY DEWPOINT AND RELATIVE
    HUMIDITY OBSERVATIONS.

INZ001>003-010>013-019-020-041600-
NORTHWEST INDIANA

CITY           SKY/WX    TMP DP  RH WIND       PRES   REMARKS
GARY /AIRPORT/ PTSUNNY   48  45  87 N25G40    29.75R
KNOX *+        CLOUDY    43  36  75 N24G30    29.70R
LA PORTE +     CLOUDY    44  43  98 N20G33    29.71R
MICHIGAN CITY+ CLOUDY    43  41  93 N18G29    29.72R
MONTICELLO +   CLOUDY    47  41  78 N21G30    29.70R
RENSSELAER +   CLOUDY    46  43  87 N20G28    29.73R
VALPARAISO     CLOUDY    44  38  79 N18G30    29.72S

$$

LMZ046-743>745-041600-
SOUTHERN LAKE MICHIGAN

STATION/POSITION TIME  TEMP    WIND        PRES    WAVE
                       AIR SEA DIR/SP/G            HT
                 (UTC) (F)     (DEG/KT/KT) (MB)    (FT)
BURNS HARBOR     1405   44     360/ 21     1007.1R
MICHIGAN CITY    1400   43     330/ 27/ 33   N/A

$$

INZ004-005-014>016-021>024-041600-
NORTH CENTRAL INDIANA

CITY           SKY/WX    TMP DP  RH WIND       PRES   REMARKS
ELKHART        CLOUDY    45  45 100 NW14G21   29.64R
GOSHEN         CLOUDY    47  42  83 NW23      29.62R
LOGANSPORT +   CLOUDY    46  45  93 NW13G20   29.69R
PERU/GRISSOM   CLOUDY    50  46  87 NW14G28   29.65R
ROCHESTER +    CLOUDY    48  45  87 NW15G24   29.67R
SOUTH BEND     CLOUDY    42  39  89 NW25G31   29.67R
WARSAW +       CLOUDY    46  43  87 NW17G25   29.64R

$$

INZ006>009-017-018-025>027-041600-
NORTHEAST INDIANA

CITY           SKY/WX    TMP DP  RH WIND       PRES   REMARKS
ANGOLA *+      CLOUDY    48  46  93 NW13      29.58S
AUBURN +       DRIZZLE   48  45  87 NW10      29.59S
FORT WAYNE     CLOUDY    49  45  86 W12       29.61R
HUNTINGTON +   CLOUDY   N/A N/A N/A NW7       29.61S

$$

INZ028-029-035-036-043>045-051>053-041600-
WEST CENTRAL INDIANA

CITY           SKY/WX    TMP DP  RH WIND       PRES   REMARKS
CRAWFORDSVL +  LGT RAIN  48  48 100 NW13      29.70S
GREENCASTLE +  CLOUDY    54  50  87 NW9       29.70S
LAFAYETTE      PTSUNNY   51  44  77 N16G26    29.71R
TERRE HAUTE    PTSUNNY   56  46  69 NW12      29.71R

$$

INZ030>032-037>040-046>048-054>057-064-065-041600-
CENTRAL INDIANA

CITY           SKY/WX    TMP DP  RH WIND       PRES   REMARKS
ANDERSON       LGT RAIN  48  46  93 NW12      29.67R
CP ATTERBURY + CLOUDY    52  48  87 W8        29.69S
COLUMBUS       CLOUDY    50  50 100 SW8       29.69F
FISHERS *+     CLOUDY    48  48 100 NW7       29.68R
FRANKFORT +      N/A     53  39  60 N18       29.70R
GREENWOOD *+   CLOUDY    52  50  93 W12       29.68S
INDIANAPOLIS   PTSUNNY   54  47  77 NW14      29.67S
-EAGLE CREEK   LGT RAIN  51  47  86 NW10G20   29.68R
KOKOMO *+      CLOUDY    50  43  76 NW18G25   29.66R
MARION +       CLOUDY    50  46  88 NW15G23   29.65R
SHELBYVILLE    CLOUDY    54  48  80 W13       29.67S
ZIONSVILLE +   CLOUDY    50  46  86 NW14G20   29.69R

$$

INZ033-034-041-042-049-050-058-059-041600-
EAST CENTRAL INDIANA

CITY           SKY/WX    TMP DP  RH WIND       PRES   REMARKS
MUNCIE         CLOUDY    52  45  77 W15G24    29.64S

$$

INZ060-061-067>069-081>083-085>088-041600-
SOUTHWEST INDIANA

CITY           SKY/WX    TMP DP  RH WIND       PRES   REMARKS
EVANSVILLE     CLOUDY    54  50  86 SW10      29.72F
HUNTINGBURG *+ CLOUDY    52  46  82 S7        29.72F
WASHINGTON +   CLOUDY    52  52 100 SW8       29.70F

$$

INZ062-063-066-070>080-084-089>092-041600-
SOUTH CENTRAL AND SOUTHEAST INDIANA

CITY           SKY/WX    TMP DP  RH WIND       PRES   REMARKS
BEDFORD +      RAIN      52  52 100 SW7       29.69R
BLOOMINGTON    CLOUDY    51  48  89 W8        29.69S
MADISON *+     CLOUDY    52  46  82 SW8       29.72F
NORTH VERNON + CLOUDY   N/A N/A N/A CALM      29.70F
SEYMOUR +      CLOUDY    52  50  93 CALM      29.69F

$$





USA.gov is the U.S. government's official web portal to all federal, state and local government web resources and services.